Location: Prague
(50.0830°N, 14.4670°E)
Time: 20:25:50
(UTC+01:00)

BEESAT - Visible Passes

Search period start: 07 December 2021 00:00
Search period end: 17 December 2021 00:00
Orbit: 700 x 707 km, 98.6° (Epoch: 07 December)

Date Brightness Start Highest point End Pass type
(mag) Time Alt. Az. Time Alt. Az. Time Alt. Az.
07 Dec ? 04:49:44 10° ENE 04:50:59 11° NE 04:52:15 10° NE visible
07 Dec ? 06:23:05 10° SSE 06:27:46 60° ENE 06:32:29 10° N visible
08 Dec ? 05:29:55 10° ESE 05:33:35 22° ENE 05:37:15 10° N visible
08 Dec ? 07:06:15 10° S 07:10:56 59° WSW 07:15:42 10° NNW visible
09 Dec ? 06:11:52 10° SE 06:16:26 47° ENE 06:21:02 10° N visible
10 Dec ? 05:19:05 10° E 05:22:20 19° ENE 05:25:36 10° NNE visible
10 Dec ? 06:54:46 10° S 06:59:32 75° WSW 07:04:21 10° NNW visible
11 Dec ? 06:00:43 10° SE 06:05:07 38° ENE 06:09:33 10° N visible
12 Dec ? 05:08:23 10° E 05:11:07 15° NE 05:13:50 10° NNE visible
12 Dec ? 06:43:22 10° SSE 06:48:09 87° ENE 06:52:59 10° NNW visible
13 Dec ? 05:49:39 10° SE 05:53:49 31° ENE 05:58:01 10° N visible
14 Dec ? 04:57:54 10° ENE 04:59:54 13° NE 05:01:54 10° NNE visible
14 Dec ? 06:32:02 10° SSE 06:36:47 70° ENE 06:41:34 10° N visible
15 Dec ? 05:38:39 10° ESE 05:42:32 25° ENE 05:46:27 10° N visible
15 Dec ? 07:15:22 10° S 07:20:00 50° W 07:24:42 10° NNW visible
16 Dec ? 04:48:06 10° ENE 04:48:42 10° NE 04:49:19 10° NE visible
16 Dec ? 06:20:47 10° SE 06:25:26 55° ENE 06:30:08 10° N visible
